Blythe, CA

12:18 PM PDT on May 24, 2017 (GMT -0700)
Blythe

Weather History for KBLH - December, 2013

Change the Weather History Date:

Sunday, December 15, 2013

  Actual Average Record
Temperature  
Mean Temperature 58 °F -  
Max Temperature 71 °F 65 °F 81 °F (1977)
Min Temperature 45 °F 40 °F 25 °F (1971)
Degree Days  
Heating Degree Days 7    
Growing Degree Days 8 (Base 50)    
Moisture  
Dew Point 25 °F    
Average Humidity 32    
Maximum Humidity 48    
Minimum Humidity 15    
Precipitation  
Precipitation 0.00 in - - ()
Sea Level Pressure  
Sea Level Pressure 30.27 in    
Wind  
Wind Speed 6 mph (NW)    
Max Wind Speed 16 mph    
Max Gust Speed -    
Visibility 10 miles    
Events      
Averages and records for this station are not official NWS values.
T = Trace of Precipitation, MM = Missing Value Source: NWS Daily Summary

Daily Weather History Graph

Daily Weather History Graph

Search for Another Location

Airport or City:

Trip Planner

Search our weather history database for the weather conditions in past years. The results will help you decide how hot, cold, wet, or windy it might be!

Date:

Astronomy

Dec. 15, 2013 Rise Set
Actual Time 6:36 AM PST 4:32 PM PST
Civil Twilight 6:08 AM PST 4:59 PM PST
Nautical Twilight 5:37 AM PST 5:31 PM PST
Astronomical Twilight 5:07 AM PST 6:01 PM PST
Moon 3:36 PM PST (12/15) 4:59 AM PST (12/15)
Length of Visible Light 10h 51m
Length of Day
9h 56m
Waxing Gibbous, 98% of the Moon is Illuminated
Dec 15
Waxing Gibbous
Dec 17
Full
Dec 25
Last Quarter
Jan 1
New
Jan 7
First Quarter

Hourly Weather History & Observations

Time (PST) Temp. Windchill Dew Point Humidity Pressure Visibility Wind Dir Wind Speed Gust Speed Precip Events Conditions
12:52 AM 48.0 °F - 24.1 °F 39% 30.33 in 10.0 mi NE 9.2 mph - N/A   Clear
1:52 AM 46.9 °F - 25.0 °F 42% 30.34 in 10.0 mi East 6.9 mph - N/A   Clear
2:52 AM 45.0 °F - 26.1 °F 48% 30.34 in 10.0 mi Calm Calm - N/A   Clear
3:52 AM 48.0 °F - 25.0 °F 41% 30.33 in 10.0 mi SSW 3.5 mph - N/A   Clear
4:52 AM 50.0 °F - 24.1 °F 36% 30.33 in 10.0 mi SW 4.6 mph - N/A   Clear
5:52 AM 45.0 °F 41.8 °F 24.1 °F 44% 30.34 in 10.0 mi SSE 5.8 mph - N/A   Clear
6:52 AM 45.0 °F 42.6 °F 24.1 °F 44% 30.34 in 10.0 mi SSW 4.6 mph - N/A   Clear
7:52 AM 46.9 °F - 26.1 °F 44% 30.35 in 10.0 mi WNW 5.8 mph - N/A   Clear
8:52 AM 53.1 °F - 27.0 °F 37% 30.37 in 10.0 mi Calm Calm - N/A   Clear
9:52 AM 57.0 °F - 27.0 °F 32% 30.36 in 10.0 mi Calm Calm - N/A   Clear
10:52 AM 60.1 °F - 27.0 °F 28% 30.32 in 10.0 mi WSW 3.5 mph - N/A   Clear
11:52 AM 68.0 °F - 21.9 °F 17% 30.28 in 10.0 mi North 16.1 mph - N/A   Clear
12:52 PM 69.1 °F - 21.0 °F 16% 30.25 in 10.0 mi North 15.0 mph - N/A   Clear
1:52 PM 71.1 °F - 21.0 °F 15% 30.23 in 10.0 mi North 15.0 mph - N/A   Clear
2:52 PM 70.0 °F - 21.0 °F 16% 30.20 in 10.0 mi North 13.8 mph - N/A   Clear
3:52 PM 66.9 °F - 24.1 °F 20% 30.19 in 10.0 mi NE 5.8 mph - N/A   Clear
4:52 PM 62.1 °F - 28.9 °F 29% 30.20 in 10.0 mi Variable 3.5 mph - N/A   Clear
5:52 PM 61.0 °F - 25.0 °F 25% 30.20 in 10.0 mi NNW 4.6 mph - N/A   Clear
6:52 PM 60.1 °F - 23.0 °F 24% 30.21 in 10.0 mi Calm Calm - N/A   Clear
7:52 PM 57.0 °F - 24.1 °F 28% 30.21 in 10.0 mi WNW 5.8 mph - N/A   Clear
8:52 PM 57.0 °F - 24.1 °F 28% 30.22 in 10.0 mi Calm Calm - N/A   Clear
9:52 PM 55.0 °F - 25.0 °F 31% 30.22 in 10.0 mi Calm Calm - N/A   Clear
10:52 PM 51.1 °F - 26.1 °F 38% 30.22 in 10.0 mi WNW 5.8 mph - N/A   Clear
11:52 PM 51.1 °F - 25.0 °F 36% 30.21 in 10.0 mi West 6.9 mph - N/A   Clear